QPF
0.02 0.01 0.01 0.01 0.00 0.00 0.00 0.01 0.01 0.01 0.02 0.01 0.01 0.01 0.02 0.02 0.02 0.01 0.01 0.01 0.01 0.02 0.02 0.03 0.03 0.03 0.02 0.01 0.01 0.01 0.01 0.02 0.02 0.02 0.02 0.03 0.03 0.03 0.04 0.04 0.05 0.05 0.05 0.04
0.03 0.01 0.01 0.00 0.00 0.00 0.01 0.01 0.00 0.00 0.01 0.01 0.01 0.01 0.01 0.01 0.01 0.01 0.01 0.01 0.01 0.01 0.01 0.02 0.01 0.02 0.02 0.01 0.01 0.01 0.01 0.02 0.03 0.03 0.02 0.01 0.02 0.03 0.04 0.05 0.07 0.07 0.07 0.05
0.01 0.01 0.00 0.01 0.01 0.01 0.01 0.01 0.01 0.01 0.01 0.01 0.01 0.01 0.01 0.01 0.01 0.01 0.01 0.01 0.01 0.01 0.01 0.01 0.01 0.01 0.02 0.02 0.03 0.02 0.02 0.02 0.02 0.03 0.02 0.01 0.01 0.02 0.04 0.07 0.09 0.09 0.09 0.06
0.00 0.00 0.01 0.01 0.01 0.01 0.01 0.01 0.01 0.01 0.01 0.01 0.01 0.01 0.01 0.01 0.01 0.01 0.01 0.01 0.01 0.02 0.02 0.01 0.01 0.01 0.02 0.03 0.02 0.01 0.01 0.01 0.02 0.02 0.02 0.02 0.02 0.02 0.04 0.05 0.07 0.08 0.08 0.06
0.00 0.00 0.00 0.01 0.01 0.00 0.01 0.01 0.01 0.01 0.01 0.01 0.01 0.01 0.02 0.01 0.01 0.01 0.01 0.02 0.03 0.03 0.02 0.01 0.00 0.01 0.02 0.03 0.01 0.01 0.01 0.01 0.01 0.02 0.02 0.02 0.02 0.04 0.05 0.05 0.06 0.06 0.07 0.07
0.00 0.00 0.00 0.01 0.01 0.00 0.00 0.01 0.01 0.01 0.01 0.01 0.01 0.01 0.02 0.02 0.01 0.01 0.02 0.02 0.03 0.03 0.02 0.01 0.01 0.03 0.03 0.02 0.01 0.01 0.01 0.01 0.01 0.02 0.02 0.02 0.03 0.04 0.05 0.05 0.06 0.05 0.05 0.05
0.00 0.00 0.01 0.01 0.00 0.01 0.01 0.01 0.01 0.01 0.01 0.01 0.01 0.01 0.01 0.01 0.01 0.01 0.02 0.03 0.03 0.02 0.02 0.01 0.01 0.03 0.04 0.03 0.02 0.01 0.01 0.01 0.01 0.01 0.01 0.02 0.02 0.04 0.04 0.04 0.05 0.05 0.04 0.02
0.00 0.00 0.01 0.01 0.01 0.01 0.01 0.01 0.00 0.00 0.01 0.01 0.01 0.01 0.01 0.01 0.01 0.01 0.02 0.03 0.02 0.02 0.03 0.02 0.02 0.02 0.04 0.03 0.02 0.01 0.01 0.01 0.00 0.01 0.02 0.02 0.02 0.03 0.03 0.03 0.04 0.02 0.02 0.03
0.00 0.00 0.00 0.01 0.01 0.01 0.01 0.01 0.00 0.00 0.00 0.01 0.01 0.01 0.01 0.01 0.00 0.01 0.02 0.02 0.02 0.03 0.03 0.02 0.02 0.01 0.02 0.02 0.01 0.01 0.01 0.00 0.00 0.01 0.01 0.02 0.02 0.02 0.02 0.03 0.02 0.02 0.03 0.04
0.00 0.00 0.00 0.01 0.01 0.01 0.00 0.00 0.00 0.00 0.00 0.00 0.01 0.00 0.01 0.01 0.01 0.01 0.01 0.01 0.01 0.01 0.01 0.01 0.01 0.02 0.02 0.01 0.01 0.01 0.00 0.00 0.00 0.00 0.01 0.01 0.02 0.02 0.03 0.03 0.02 0.02 0.03 0.03
0.00 0.00 0.00 0.00 0.00 0.01 0.00 0.00 0.00 0.00 0.01 0.01 0.01 0.00 0.00 0.00 0.01 0.01 0.01 0.01 0.01 0.01 0.00 0.00 0.01 0.02 0.03 0.02 0.01 0.01 0.00 0.00 0.00 0.00 0.00 0.01 0.01 0.02 0.03 0.02 0.02 0.02 0.02 0.02
0.01 0.01 0.01 0.01 0.01 0.00 0.00 0.00 0.00 0.00 0.01 0.01 0.01 0.01 0.01 0.00 0.01 0.02 0.02 0.01 0.01 0.00 0.00 0.00 0.01 0.01 0.02 0.02 0.01 0.00 0.00 0.00 0.00 0.00 0.01 0.01 0.01 0.02 0.02 0.02 0.01 0.02 0.01 0.01
0.02 0.02 0.03 0.03 0.02 0.01 0.01 0.00 0.01 0.01 0.01 0.00 0.01 0.01 0.01 0.00 0.01 0.02 0.02 0.01 0.01 0.01 0.01 0.01 0.01 0.01 0.02 0.02 0.01 0.00 0.00 0.00 0.00 0.00 0.01 0.01 0.02 0.02 0.03 0.03 0.02 0.01 0.01 0.01
0.01 0.02 0.02 0.01 0.01 0.01 0.00 0.00 0.00 0.00 0.00 0.00 0.00 0.00 0.01 0.01 0.01 0.02 0.01 0.01 0.01 0.01 0.00 0.01 0.01 0.01 0.01 0.01 0.01 0.01 0.00 0.00 0.00 0.01 0.01 0.01 0.02 0.02 0.02 0.03 0.02 0.01 0.01 0.01
0.00 0.00 0.00 0.00 0.00 0.00 0.00 0.00 0.00 0.00 0.00 0.00 0.00 0.00 0.01 0.01 0.01 0.01 0.01 0.01 0.01 0.01 0.01 0.01 0.01 0.01 0.01 0.01 0.01 0.00 0.01 0.01 0.01 0.01 0.02 0.02 0.02 0.02 0.02 0.03 0.02 0.02 0.01 0.00
0.00 0.00 0.00 0.00 0.00 0.00 0.00 0.00 0.00 0.00 0.00 0.01 0.00 0.00 0.01 0.01 0.01 0.01 0.01 0.01 0.01 0.01 0.01 0.01 0.01 0.01 0.01 0.01 0.01 0.00 0.00 0.00 0.01 0.01 0.01 0.02 0.03 0.03 0.02 0.02 0.01 0.01 0.01 0.00
0.00 0.00 0.01 0.00 0.00 0.00 0.00 0.00 0.00 0.00 0.00 0.01 0.00 0.00 0.01 0.01 0.01 0.01 0.01 0.01 0.00 0.01 0.01 0.01 0.01 0.01 0.01 0.01 0.01 0.00 0.00 0.00 0.01 0.01 0.01 0.02 0.03 0.02 0.02 0.02 0.01 0.01 0.01 0.00
0.00 0.00 0.00 0.01 0.00 0.00 0.00 0.00 0.00 0.00 0.00 0.00 0.00 0.01 0.01 0.01 0.01 0.01 0.01 0.01 0.00 0.00 0.01 0.02 0.02 0.01 0.01 0.01 0.01 0.00 0.00 0.00 0.01 0.01 0.01 0.02 0.02 0.02 0.01 0.02 0.01 0.01 0.00 0.00
0.00 0.00 0.00 0.00 0.00 0.00 0.00 0.00 0.00 0.00 0.00 0.00 0.01 0.01 0.01 0.01 0.01 0.01 0.01 0.01 0.00 0.00 0.00 0.01 0.02 0.01 0.01 0.01 0.01 0.01 0.01 0.01 0.01 0.01 0.01 0.01 0.01 0.02 0.02 0.03 0.02 0.01 0.01 0.00
0.00 0.00 0.00 0.00 0.00 0.00 0.00 0.00 0.00 0.00 0.00 0.01 0.01 0.01 0.01 0.01 0.01 0.01 0.02 0.01 0.00 0.00 0.00 0.01 0.01 0.01 0.02 0.02 0.02 0.01 0.01 0.01 0.02 0.02 0.02 0.01 0.02 0.03 0.03 0.03 0.03 0.01 0.01 0.01
0.00 0.00 0.00 0.00 0.00 0.00 0.00 0.00 0.00 0.00 0.00 0.01 0.01 0.01 0.01 0.01 0.01 0.01 0.01 0.01 0.00 0.00 0.00 0.00 0.00 0.01 0.01 0.02 0.02 0.02 0.02 0.01 0.02 0.02 0.01 0.01 0.02 0.03 0.03 0.03 0.02 0.01 0.01 0.00
0.00 0.00 0.00 0.00 0.00 0.00 0.00 0.00 0.00 0.01 0.00 0.00 0.01 0.01 0.01 0.01 0.01 0.01 0.01 0.01 0.01 0.00 0.00 0.00 0.00 0.01 0.01 0.01 0.02 0.02 0.01 0.01 0.01 0.01 0.01 0.01 0.02 0.03 0.03 0.03 0.02 0.01 0.00 0.00
0.00 0.00 0.00 0.00 0.00 0.00 0.00 0.00 0.00 0.01 0.01 0.01 0.00 0.01 0.01 0.01 0.01 0.01 0.01 0.01 0.01 0.01 0.00 0.00 0.01 0.01 0.01 0.01 0.01 0.01 0.01 0.01 0.02 0.02 0.01 0.00 0.01 0.02 0.03 0.02 0.01 0.01 0.00 0.00
0.01 0.01 0.01 0.00 0.00 0.00 0.00 0.00 0.00 0.00 0.01 0.01 0.01 0.01 0.01 0.01 0.01 0.01 0.01 0.01 0.01 0.01 0.01 0.01 0.01 0.01 0.01 0.00 0.00 0.00 0.01 0.01 0.01 0.01 0.00 0.01 0.02 0.02 0.01 0.01 0.01 0.00 0.00 0.00
0.01 0.01 0.00 0.00 0.00 0.00 0.00 0.00 0.01 0.01 0.01 0.01 0.01 0.01 0.02 0.02 0.01 0.01 0.01 0.01 0.01 0.01 0.01 0.00 0.00 0.00 0.00 0.00 0.00 0.01 0.01 0.01 0.01 0.01 0.01 0.01 0.01 0.00 0.00 0.01 0.00 0.00 0.00 0.00
0.01 0.00 0.00 0.00 0.00 0.01 0.01 0.01 0.01 0.01 0.01 0.01 0.01 0.02 0.02 0.02 0.01 0.01 0.02 0.01 0.01 0.00 0.00 0.00 0.00 0.00 0.00 0.01 0.01 0.01 0.01 0.01 0.00 0.00 0.00 0.00 0.00 0.00 0.00 0.00 0.00 0.00 0.00 0.00
0.01 0.01 0.00 0.00 0.01 0.01 0.01 0.01 0.01 0.01 0.01 0.02 0.02 0.03 0.03 0.02 0.02 0.02 0.01 0.01 0.01 0.01 0.00 0.00 0.00 0.00 0.01 0.01 0.00 0.01 0.00 0.00 0.00 0.00 0.00 0.00 0.00 0.00 0.00 0.00 0.00 0.00 0.00 0.00
MSLP
1012.91 1012.85 1012.94 1013.18 1013.49 1013.82 1014.08 1014.21 1014.14 1013.88 1013.43 1012.85 1012.23 1011.64 1011.19 1010.91 1010.84 1010.98 1011.28 1011.69 1012.12 1012.52 1012.83 1013.02 1013.10 1013.09 1013.01 1012.92 1012.84 1012.80 1012.79 1012.81 1012.83 1012.82 1012.74 1012.59 1012.35 1012.04 1011.67 1011.26 1010.85 1010.44 1010.04 1009.65
1013.64 1013.65 1013.80 1014.07 1014.40 1014.71 1014.93 1014.99 1014.86 1014.53 1014.00 1013.35 1012.65 1011.98 1011.43 1011.05 1010.87 1010.90 1011.10 1011.41 1011.77 1012.10 1012.38 1012.55 1012.63 1012.63 1012.57 1012.50 1012.43 1012.40 1012.40 1012.42 1012.43 1012.41 1012.33 1012.17 1011.92 1011.58 1011.19 1010.74 1010.28 1009.81 1009.35 1008.90
1014.61 1014.69 1014.90 1015.19 1015.53 1015.82 1016.00 1016.01 1015.81 1015.40 1014.79 1014.04 1013.24 1012.46 1011.78 1011.28 1010.97 1010.86 1010.93 1011.13 1011.39 1011.66 1011.90 1012.06 1012.15 1012.17 1012.14 1012.10 1012.06 1012.04 1012.05 1012.07 1012.08 1012.05 1011.95 1011.77 1011.49 1011.13 1010.70 1010.21 1009.69 1009.15 1008.62 1008.10
1015.88 1016.01 1016.25 1016.57 1016.89 1017.14 1017.27 1017.21 1016.93 1016.42 1015.72 1014.87 1013.95 1013.05 1012.25 1011.60 1011.14 1010.89 1010.82 1010.90 1011.07 1011.27 1011.47 1011.62 1011.72 1011.77 1011.78 1011.77 1011.76 1011.77 1011.78 1011.79 1011.79 1011.73 1011.61 1011.40 1011.09 1010.69 1010.21 1009.67 1009.09 1008.49 1007.88 1007.29
1017.46 1017.60 1017.84 1018.12 1018.39 1018.58 1018.62 1018.47 1018.09 1017.48 1016.67 1015.72 1014.69 1013.68 1012.75 1011.97 1011.38 1010.99 1010.79 1010.75 1010.83 1010.97 1011.13 1011.28 1011.39 1011.47 1011.52 1011.54 1011.56 1011.58 1011.59 1011.59 1011.55 1011.46 1011.30 1011.05 1010.70 1010.25 1009.73 1009.14 1008.50 1007.85 1007.19 1006.53
1019.25 1019.36 1019.54 1019.74 1019.91 1019.98 1019.90 1019.63 1019.13 1018.42 1017.51 1016.47 1015.35 1014.24 1013.21 1012.32 1011.62 1011.12 1010.82 1010.69 1010.69 1010.78 1010.91 1011.05 1011.18 1011.28 1011.35 1011.40 1011.44 1011.45 1011.45 1011.42 1011.35 1011.22 1011.01 1010.71 1010.31 1009.83 1009.26 1008.63 1007.96 1007.27 1006.57 1005.87
1021.10 1021.12 1021.19 1021.25 1021.27 1021.19 1020.97 1020.55 1019.93 1019.11 1018.11 1016.99 1015.81 1014.64 1013.55 1012.60 1011.82 1011.25 1010.87 1010.68 1010.62 1010.67 1010.78 1010.92 1011.06 1011.18 1011.27 1011.34 1011.37 1011.38 1011.35 1011.28 1011.16 1010.97 1010.71 1010.36 1009.92 1009.41 1008.82 1008.17 1007.48 1006.78 1006.07 1005.36
1022.82 1022.72 1022.63 1022.52 1022.36 1022.09 1021.69 1021.12 1020.37 1019.45 1018.39 1017.22 1016.01 1014.82 1013.72 1012.75 1011.95 1011.35 1010.93 1010.70 1010.62 1010.64 1010.74 1010.87 1011.01 1011.14 1011.24 1011.30 1011.33 1011.31 1011.25 1011.13 1010.96 1010.71 1010.40 1010.01 1009.54 1009.00 1008.40 1007.76 1007.09 1006.40 1005.70 1005.02
1024.28 1024.02 1023.75 1023.44 1023.06 1022.60 1022.01 1021.29 1020.42 1019.42 1018.32 1017.14 1015.94 1014.78 1013.70 1012.76 1011.99 1011.39 1010.98 1010.74 1010.65 1010.66 1010.75 1010.87 1011.01 1011.13 1011.23 1011.28 1011.28 1011.23 1011.12 1010.96 1010.73 1010.44 1010.08 1009.65 1009.16 1008.62 1008.04 1007.42 1006.79 1006.14 1005.50 1004.86
1025.37 1024.95 1024.48 1023.96 1023.38 1022.72 1021.96 1021.09 1020.13 1019.08 1017.95 1016.80 1015.64 1014.55 1013.54 1012.67 1011.95 1011.40 1011.01 1010.79 1010.70 1010.71 1010.78 1010.90 1011.02 1011.13 1011.20 1011.23 1011.20 1011.12 1010.97 1010.76 1010.49 1010.15 1009.76 1009.32 1008.83 1008.30 1007.75 1007.18 1006.60 1006.02 1005.45 1004.88
1026.07 1025.49 1024.85 1024.14 1023.37 1022.53 1021.62 1020.64 1019.60 1018.52 1017.40 1016.29 1015.21 1014.20 1013.29 1012.51 1011.87 1011.38 1011.04 1010.84 1010.76 1010.77 1010.83 1010.93 1011.03 1011.11 1011.16 1011.15 1011.09 1010.98 1010.79 1010.55 1010.25 1009.89 1009.49 1009.04 1008.57 1008.08 1007.58 1007.07 1006.56 1006.06 1005.57 1005.07
1026.44 1025.73 1024.94 1024.07 1023.15 1022.17 1021.14 1020.08 1018.99 1017.89 1016.80 1015.75 1014.75 1013.84 1013.03 1012.34 1011.79 1011.37 1011.08 1010.90 1010.83 1010.82 1010.87 1010.94 1011.01 1011.06 1011.08 1011.04 1010.96 1010.81 1010.61 1010.36 1010.04 1009.69 1009.30 1008.88 1008.44 1008.00 1007.56 1007.12 1006.69 1006.28 1005.86 1005.44
1026.57 1025.77 1024.87 1023.89 1022.86 1021.78 1020.67 1019.55 1018.44 1017.34 1016.29 1015.29 1014.37 1013.54 1012.83 1012.22 1011.74 1011.37 1011.12 1010.96 1010.88 1010.86 1010.88 1010.92 1010.95 1010.97 1010.96 1010.90 1010.80 1010.65 1010.45 1010.20 1009.91 1009.59 1009.23 1008.86 1008.47 1008.09 1007.72 1007.36 1007.01 1006.67 1006.33 1005.97
1026.57 1025.72 1024.76 1023.72 1022.62 1021.49 1020.33 1019.18 1018.05 1016.97 1015.94 1014.99 1014.13 1013.37 1012.71 1012.17 1011.73 1011.40 1011.16 1011.00 1010.91 1010.86 1010.85 1010.85 1010.85 1010.83 1010.80 1010.74 1010.64 1010.51 1010.33 1010.12 1009.88 1009.60 1009.31 1009.00 1008.69 1008.38 1008.08 1007.80 1007.52 1007.24 1006.96 1006.66
1026.52 1025.66 1024.69 1023.63 1022.51 1021.36 1020.18 1019.02 1017.89 1016.81 1015.80 1014.88 1014.05 1013.32 1012.70 1012.18 1011.76 1011.44 1011.19 1011.01 1010.89 1010.81 1010.75 1010.72 1010.69 1010.66 1010.62 1010.56 1010.49 1010.39 1010.27 1010.12 1009.95 1009.75 1009.54 1009.32 1009.09 1008.86 1008.64 1008.42 1008.20 1007.98 1007.74 1007.47
1026.47 1025.63 1024.69 1023.65 1022.55 1021.40 1020.23 1019.07 1017.94 1016.87 1015.86 1014.94 1014.12 1013.39 1012.77 1012.24 1011.81 1011.47 1011.19 1010.97 1010.81 1010.69 1010.60 1010.53 1010.48 1010.45 1010.42 1010.39 1010.36 1010.32 1010.27 1010.21 1010.13 1010.03 1009.91 1009.78 1009.64 1009.50 1009.35 1009.19 1009.02 1008.83 1008.62 1008.37
1026.43 1025.64 1024.75 1023.75 1022.69 1021.57 1020.43 1019.28 1018.16 1017.08 1016.07 1015.14 1014.30 1013.55 1012.90 1012.34 1011.87 1011.48 1011.16 1010.90 1010.69 1010.53 1010.40 1010.31 1010.26 1010.23 1010.22 1010.24 1010.27 1010.30 1010.34 1010.38 1010.40 1010.40 1010.39 1010.36 1010.31 1010.24 1010.16 1010.05 1009.92 1009.76 1009.56 1009.31
1026.40 1025.67 1024.83 1023.90 1022.89 1021.81 1020.71 1019.58 1018.47 1017.40 1016.37 1015.42 1014.54 1013.76 1013.06 1012.46 1011.93 1011.49 1011.11 1010.80 1010.54 1010.34 1010.19 1010.09 1010.04 1010.03 1010.06 1010.13 1010.23 1010.35 1010.49 1010.62 1010.75 1010.86 1010.94 1011.00 1011.03 1011.03 1011.00 1010.94 1010.84 1010.69 1010.49 1010.24
1026.36 1025.68 1024.90 1024.03 1023.08 1022.06 1021.00 1019.91 1018.82 1017.75 1016.72 1015.74 1014.83 1014.00 1013.26 1012.59 1012.01 1011.50 1011.07 1010.70 1010.41 1010.18 1010.01 1009.91 1009.87 1009.90 1009.97 1010.11 1010.28 1010.49 1010.71 1010.94 1011.16 1011.36 1011.53 1011.67 1011.76 1011.82 1011.83 1011.80 1011.71 1011.58 1011.37 1011.10
1026.28 1025.65 1024.93 1024.12 1023.23 1022.27 1021.26 1020.21 1019.15 1018.09 1017.06 1016.07 1015.14 1014.27 1013.48 1012.75 1012.11 1011.55 1011.06 1010.65 1010.32 1010.07 1009.89 1009.80 1009.78 1009.85 1009.98 1010.17 1010.42 1010.70 1011.00 1011.31 1011.61 1011.88 1012.12 1012.31 1012.46 1012.55 1012.60 1012.58 1012.51 1012.37 1012.16 1011.88
1026.18 1025.58 1024.91 1024.15 1023.32 1022.42 1021.46 1020.47 1019.45 1018.42 1017.41 1016.41 1015.46 1014.57 1013.73 1012.96 1012.26 1011.64 1011.10 1010.65 1010.29 1010.02 1009.85 1009.77 1009.78 1009.88 1010.07 1010.32 1010.64 1010.99 1011.36 1011.73 1012.09 1012.41 1012.70 1012.93 1013.10 1013.22 1013.28 1013.27 1013.20 1013.07 1012.85 1012.57
1026.05 1025.48 1024.84 1024.13 1023.35 1022.51 1021.62 1020.68 1019.72 1018.73 1017.74 1016.76 1015.80 1014.88 1014.01 1013.20 1012.45 1011.79 1011.20 1010.71 1010.33 1010.05 1009.87 1009.81 1009.85 1009.99 1010.23 1010.54 1010.91 1011.32 1011.75 1012.17 1012.57 1012.93 1013.25 1013.50 1013.69 1013.81 1013.88 1013.87 1013.80 1013.67 1013.46 1013.17
1025.90 1025.34 1024.73 1024.07 1023.35 1022.57 1021.74 1020.87 1019.96 1019.03 1018.07 1017.11 1016.16 1015.22 1014.32 1013.47 1012.68 1011.96 1011.34 1010.81 1010.40 1010.10 1009.93 1009.88 1009.95 1010.13 1010.42 1010.78 1011.20 1011.66 1012.14 1012.60 1013.03 1013.42 1013.75 1014.02 1014.21 1014.34 1014.40 1014.40 1014.33 1014.19 1013.99 1013.70
1025.71 1025.18 1024.60 1023.98 1023.32 1022.60 1021.84 1021.04 1020.19 1019.31 1018.39 1017.45 1016.51 1015.56 1014.64 1013.75 1012.91 1012.15 1011.48 1010.91 1010.47 1010.15 1009.97 1009.94 1010.03 1010.25 1010.57 1010.99 1011.46 1011.97 1012.48 1012.98 1013.45 1013.86 1014.20 1014.47 1014.67 1014.80 1014.86 1014.86 1014.79 1014.66 1014.47 1014.20
1025.47 1024.97 1024.43 1023.86 1023.25 1022.60 1021.91 1021.18 1020.39 1019.56 1018.68 1017.77 1016.83 1015.88 1014.94 1014.01 1013.13 1012.32 1011.60 1010.99 1010.51 1010.17 1009.98 1009.94 1010.05 1010.30 1010.66 1011.11 1011.63 1012.19 1012.75 1013.28 1013.78 1014.22 1014.58 1014.87 1015.08 1015.21 1015.27 1015.27 1015.21 1015.09 1014.91 1014.66
1025.17 1024.70 1024.21 1023.69 1023.14 1022.56 1021.94 1021.26 1020.54 1019.76 1018.93 1018.05 1017.13 1016.17 1015.20 1014.25 1013.33 1012.46 1011.69 1011.03 1010.51 1010.14 1009.93 1009.88 1010.00 1010.26 1010.65 1011.14 1011.70 1012.29 1012.90 1013.48 1014.01 1014.48 1014.88 1015.18 1015.41 1015.56 1015.63 1015.64 1015.59 1015.48 1015.32 1015.09
1024.78 1024.36 1023.92 1023.46 1022.97 1022.45 1021.89 1021.28 1020.62 1019.90 1019.12 1018.27 1017.36 1016.41 1015.44 1014.46 1013.50 1012.60 1011.78 1011.07 1010.50 1010.09 1009.84 1009.78 1009.88 1010.14 1010.54 1011.06 1011.65 1012.28 1012.93 1013.55 1014.13 1014.64 1015.07 1015.41 1015.66 1015.83 1015.92 1015.95 1015.91 1015.82 1015.67 1015.48
Thickness
5671 5674 5673 5669 5668 5667 5659 5653 5646 5650 5650 5652 5653 5653 5652 5652 5650 5647 5645 5644 5642 5641 5640 5639 5639 5639 5639 5639 5638 5637 5636 5635 5633 5632 5631 5630 5629 5628 5626 5625 5623 5622 5620 5619
5667 5672 5669 5664 5665 5663 5660 5656 5652 5651 5648 5651 5651 5651 5649 5647 5645 5643 5641 5640 5638 5637 5636 5635 5634 5634 5633 5633 5633 5632 5631 5629 5628 5628 5626 5625 5624 5623 5622 5621 5620 5618 5617 5615
5653 5661 5664 5652 5657 5657 5654 5653 5649 5643 5644 5647 5646 5645 5644 5642 5641 5639 5638 5636 5634 5632 5631 5630 5629 5628 5628 5628 5628 5626 5625 5625 5624 5623 5622 5621 5620 5619 5618 5617 5615 5614 5613 5612
5643 5650 5643 5650 5661 5658 5653 5650 5648 5645 5644 5642 5641 5641 5640 5639 5637 5636 5634 5632 5631 5629 5627 5626 5625 5625 5624 5623 5622 5622 5621 5620 5620 5619 5618 5617 5616 5615 5613 5612 5610 5609 5608 5608
5633 5634 5638 5649 5654 5651 5645 5642 5645 5640 5639 5638 5638 5636 5635 5637 5635 5633 5631 5629 5627 5626 5624 5623 5622 5621 5620 5619 5618 5618 5617 5617 5616 5615 5613 5611 5611 5610 5608 5606 5605 5604 5604 5603
5629 5630 5627 5640 5651 5654 5644 5633 5641 5638 5634 5631 5629 5622 5627 5633 5631 5629 5628 5626 5625 5623 5620 5619 5618 5617 5615 5614 5614 5614 5614 5613 5612 5610 5609 5607 5606 5604 5603 5602 5601 5600 5600 5600
5625 5623 5628 5641 5647 5646 5627 5625 5636 5634 5630 5626 5622 5622 5626 5628 5626 5625 5624 5623 5621 5619 5616 5615 5614 5613 5611 5611 5610 5611 5610 5609 5608 5607 5605 5604 5603 5601 5599 5598 5597 5596 5596 5596
5618 5616 5622 5641 5639 5630 5626 5631 5631 5629 5627 5624 5623 5623 5623 5622 5622 5621 5619 5618 5617 5613 5612 5612 5611 5609 5609 5608 5609 5608 5606 5606 5605 5603 5602 5601 5599 5597 5596 5594 5594 5593 5593 5593
5621 5623 5632 5634 5633 5632 5629 5626 5627 5625 5624 5622 5620 5620 5619 5618 5617 5615 5614 5613 5612 5609 5608 5608 5608 5607 5606 5607 5607 5605 5603 5602 5601 5600 5598 5597 5595 5593 5592 5592 5591 5591 5590 5590
5621 5627 5631 5631 5631 5630 5628 5625 5625 5624 5622 5620 5617 5616 5614 5613 5611 5610 5609 5608 5607 5605 5605 5605 5606 5605 5604 5605 5604 5602 5600 5599 5598 5596 5595 5594 5592 5591 5590 5589 5589 5589 5588 5587
5619 5625 5627 5629 5628 5627 5626 5625 5623 5622 5619 5616 5613 5611 5610 5609 5608 5606 5605 5604 5602 5601 5601 5602 5603 5602 5602 5602 5601 5599 5597 5596 5595 5594 5592 5591 5590 5589 5588 5588 5587 5586 5586 5585
5619 5624 5619 5622 5626 5625 5622 5621 5619 5617 5615 5614 5611 5609 5608 5606 5604 5603 5602 5601 5600 5599 5599 5600 5600 5600 5600 5599 5598 5596 5595 5594 5593 5592 5590 5589 5589 5589 5589 5587 5587 5586 5584 5583
5624 5625 5621 5622 5623 5622 5619 5618 5617 5615 5613 5610 5609 5607 5605 5603 5603 5601 5600 5599 5598 5598 5598 5598 5598 5598 5599 5598 5596 5594 5593 5592 5591 5591 5590 5589 5588 5588 5587 5588 5587 5585 5583 5581
5623 5620 5618 5619 5618 5619 5617 5616 5615 5613 5611 5609 5606 5605 5603 5602 5601 5600 5599 5598 5597 5597 5597 5596 5596 5597 5598 5597 5595 5594 5592 5592 5591 5590 5589 5589 5588 5587 5586 5585 5585 5584 5583 5580
5621 5619 5616 5616 5615 5614 5613 5611 5609 5608 5607 5606 5604 5602 5601 5600 5599 5599 5599 5598 5597 5595 5595 5595 5595 5596 5597 5596 5594 5593 5592 5591 5591 5590 5590 5589 5588 5587 5586 5585 5583 5583 5582 5581
5617 5616 5613 5610 5610 5609 5608 5607 5604 5604 5603 5602 5600 5600 5599 5599 5598 5598 5597 5597 5595 5594 5595 5595 5595 5596 5596 5595 5593 5592 5592 5592 5591 5591 5590 5589 5588 5587 5586 5584 5583 5582 5581 5578
5609 5608 5607 5606 5606 5606 5605 5604 5602 5601 5600 5599 5598 5598 5597 5596 5596 5596 5596 5596 5595 5594 5594 5594 5594 5595 5595 5594 5593 5592 5592 5592 5591 5591 5590 5589 5588 5587 5586 5584 5583 5581 5579 5576
5608 5607 5605 5603 5603 5602 5602 5602 5600 5599 5597 5597 5596 5595 5593 5593 5592 5593 5594 5594 5594 5594 5594 5595 5595 5595 5595 5594 5593 5592 5592 5592 5591 5591 5590 5589 5588 5587 5585 5584 5582 5580 5578 5576
5606 5604 5603 5602 5601 5599 5599 5598 5597 5596 5595 5594 5593 5592 5591 5590 5590 5591 5591 5592 5592 5593 5594 5595 5594 5594 5594 5594 5593 5592 5592 5592 5591 5591 5590 5588 5587 5586 5585 5584 5582 5580 5578 5575
5600 5600 5599 5598 5598 5596 5595 5594 5594 5593 5592 5591 5590 5589 5589 5589 5589 5589 5590 5590 5591 5593 5594 5594 5594 5594 5594 5594 5593 5592 5592 5592 5592 5591 5590 5588 5587 5586 5585 5583 5581 5579 5577 5574
5593 5594 5593 5592 5591 5591 5591 5590 5589 5589 5590 5589 5588 5587 5587 5588 5588 5588 5588 5589 5592 5593 5593 5593 5594 5594 5594 5594 5593 5593 5593 5593 5592 5591 5590 5589 5587 5586 5584 5582 5580 5578 5575 5572
5585 5585 5586 5585 5585 5585 5585 5585 5585 5586 5586 5586 5586 5586 5585 5585 5586 5586 5587 5588 5592 5592 5592 5593 5594 5594 5594 5594 5594 5593 5593 5593 5592 5591 5590 5588 5586 5585 5583 5581 5579 5577 5575 5572
5577 5578 5579 5579 5579 5579 5580 5581 5582 5583 5583 5583 5584 5584 5584 5584 5585 5585 5586 5590 5591 5591 5592 5593 5594 5594 5593 5593 5594 5594 5593 5592 5592 5591 5590 5588 5586 5584 5582 5580 5578 5577 5574 5571
5571 5572 5573 5573 5574 5573 5574 5577 5579 5579 5580 5581 5582 5583 5583 5583 5584 5586 5587 5589 5590 5590 5591 5592 5593 5593 5592 5592 5593 5592 5592 5591 5591 5591 5590 5588 5586 5584 5583 5581 5579 5577 5574 5571
5566 5567 5568 5568 5568 5570 5571 5573 5574 5575 5576 5578 5580 5582 5582 5583 5583 5586 5587 5588 5589 5589 5590 5590 5591 5591 5591 5591 5591 5591 5591 5591 5591 5591 5590 5588 5586 5585 5583 5581 5579 5577 5574 5571
5561 5561 5563 5564 5565 5566 5567 5568 5569 5571 5573 5575 5578 5580 5581 5582 5583 5584 5585 5586 5587 5587 5588 5589 5589 5589 5589 5590 5590 5590 5590 5591 5591 5590 5590 5588 5587 5585 5583 5581 5579 5576 5574 5571
5555 5556 5557 5559 5562 5563 5564 5564 5566 5568 5571 5573 5575 5577 5579 5581 5581 5582 5583 5584 5585 5585 5586 5587 5587 5587 5588 5589 5589 5589 5589 5589 5590 5590 5589 5589 5587 5585 5584 5581 5579 5576 5574 5571